Location: Sewell
(39.7660°N, 75.1450°W)
Time: 11:11:17
(UTC-05:00)

ISS - Visible Passes

Search period start: 12 February 2016 00:00
Search period end: 22 February 2016 00:00
Orbit: 399 x 407 km, 51.6° (Epoch: 12 February)

Date Brightness Start Highest point End Pass type
(mag) Time Alt. Az. Time Alt. Az. Time Alt. Az.
12 Feb -0.8 18:34:37 10° N 18:35:37 11° N 18:36:37 10° NNE visible
13 Feb -1.0 19:17:40 10° NNW 19:18:54 16° N 19:18:54 16° N visible
14 Feb -1.1 18:25:15 10° NNW 18:27:04 14° NNE 18:28:28 11° NE visible
14 Feb -0.1 20:00:54 10° NW 20:01:07 11° NW 20:01:07 11° NW visible
15 Feb -2.0 19:08:20 10° NW 19:10:45 28° N 19:10:45 28° N visible
16 Feb -1.7 18:15:50 10° NNW 18:18:22 20° NNE 18:20:27 12° ENE visible
16 Feb -0.8 19:51:50 10° WNW 19:53:07 21° WNW 19:53:07 21° WNW visible
17 Feb -3.4 18:59:05 10° NW 19:02:19 65° NE 19:02:56 50° E visible
18 Feb -2.6 18:06:27 10° NW 18:09:29 35° NNE 18:12:30 10° E visible
18 Feb -1.2 19:43:07 10° WNW 19:45:34 24° SW 19:45:34 24° SW visible
19 Feb -2.5 18:50:01 10° WNW 18:53:09 49° SW 18:55:44 14° SSE visible
21 Feb -0.7 18:41:22 10° W 18:43:48 20° SW 18:46:16 10° S visible
